Lid_Strength_Index
14 14 14 14 15 15 17 15 16 14 13 11 10 8 7 6 6 5 5 5 4 3 2 1 1 1 0 1 1 1 2 2 2 2 2 2 2 2 2 2 2 1 3 3
16 14 14 15 14 14 14 14 14 13 13 9 8 8 7 7 6 6 5 5 4 3 2 2 1 1 1 1 1 1 2 2 2 2 2 2 2 2 2 2 2 2 2 3
17 16 15 17 14 13 13 12 12 14 11 9 9 8 7 7 6 6 5 4 4 3 2 1 1 1 1 1 1 1 1 2 2 2 2 2 2 2 2 2 3 3 3 3
16 16 20 14 11 11 12 11 10 11 10 9 8 7 6 5 6 6 5 4 4 3 2 1 1 1 1 1 1 1 2 2 2 2 2 2 3 3 3 3 3 3 3 4
17 17 14 13 12 12 13 12 9 10 9 8 7 6 7 5 5 5 4 3 3 2 2 2 1 1 1 1 1 2 2 2 2 2 2 3 3 3 3 4 4 4 4 4
16 19 19 13 11 9 9 14 9 8 8 8 7 10 8 5 5 5 4 3 3 2 2 2 1 1 2 2 2 3 3 3 3 2 2 2 3 3 3 4 4 4 4 4
15 17 14 11 10 9 15 12 8 8 8 7 8 7 5 5 4 4 4 3 3 2 3 2 2 2 2 3 3 4 4 3 3 2 2 2 3 3 3 4 4 4 4 4
15 17 19 10 11 13 9 8 8 7 7 8 7 7 6 6 5 5 4 4 3 3 3 2 2 2 3 4 4 4 4 4 3 3 3 3 3 3 3 4 6 7 6 6
13 13 10 9 9 7 7 8 7 7 7 7 8 8 7 6 6 5 5 4 3 3 3 3 2 3 4 4 4 4 4 4 4 3 3 3 3 4 4 5 6 7 7 8
13 10 10 8 8 8 8 8 8 7 8 7 8 7 7 7 6 6 5 5 3 3 3 3 3 4 4 4 4 4 4 4 4 4 4 3 3 4 4 5 6 7 7 7
12 10 10 9 9 8 8 7 7 7 7 7 7 7 7 6 6 5 5 4 3 3 3 3 4 4 4 4 4 4 4 4 4 4 4 4 4 4 4 4 6 6 6 6
13 10 10 10 8 7 7 8 7 7 7 6 6 7 6 6 6 5 5 4 3 3 3 4 4 4 4 3 4 4 4 4 4 4 4 4 4 4 5 7 7 7 7 7
11 9 9 8 7 6 7 6 6 6 6 6 6 5 5 5 5 5 4 3 3 3 4 4 4 4 3 3 4 4 5 4 4 4 4 4 4 5 5 4 6 6 7 7
8 9 11 9 9 8 7 7 6 5 5 5 5 5 5 5 5 4 3 4 3 4 4 4 4 4 4 4 4 4 4 7 5 4 4 4 4 4 5 6 6 5 5 6
9 9 10 10 10 10 7 7 7 6 5 5 5 5 4 4 4 3 3 4 4 5 5 5 5 5 4 4 5 4 4 4 4 4 4 5 5 5 5 5 6 6 5 6
9 10 9 9 9 9 8 8 7 7 6 5 5 4 4 3 3 4 4 5 6 6 5 6 7 6 4 5 5 4 4 6 6 5 5 5 6 5 5 5 6 6 6 6
11 11 10 10 9 8 7 6 7 7 7 6 5 5 5 4 5 5 5 5 5 6 5 6 6 5 5 5 4 5 4 5 6 6 5 5 5 5 4 5 6 6 6 6
9 8 8 8 8 8 7 6 6 6 6 5 5 5 6 6 6 6 6 6 7 7 6 5 5 5 5 5 5 5 5 5 5 5 5 5 5 5 5 5 5 6 6 6
8 8 7 7 7 7 7 7 6 6 5 5 5 5 5 6 6 6 6 7 7 7 6 5 7 7 5 5 6 6 6 6 6 6 5 6 5 5 5 5 5 6 6 6
8 8 8 7 7 7 7 6 6 6 5 5 5 5 6 5 6 6 6 7 6 5 4 4 4 5 5 5 7 6 6 6 6 6 6 6 6 6 5 6 6 7 6 6
8 7 7 7 7 7 7 6 5 5 5 5 5 5 5 5 5 5 6 6 4 3 4 5 4 4 4 6 6 6 7 7 7 6 6 6 6 6 6 6 6 7 7 7
6 7 7 7 7 7 6 5 5 5 5 4 4 4 4 4 4 4 4 5 3 5 4 4 4 5 6 8 7 6 6 6 7 7 7 6 6 6 6 7 8 8 7 7
6 6 6 7 7 6 6 5 5 4 5 4 4 4 3 3 3 4 6 3 2 5 5 5 6 8 8 7 7 7 7 7 8 7 7 6 7 7 7 8 8 8 8 8
6 6 6 5 5 5 5 4 4 3 4 4 3 3 3 5 4 2 2 4 6 7 6 6 6 7 9 7 7 7 6 6 7 6 7 8 7 8 8 8 8 8 8 8
6 6 5 5 5 5 5 4 4 4 4 4 4 3 3 3 4 4 5 4 6 6 5 6 7 8 7 7 7 7 7 7 7 8 8 9 9 8 8 8 8 9 9 9
5 4 5 5 5 4 4 4 4 4 4 4 3 2 3 3 4 5 5 6 6 6 6 6 7 7 8 8 8 8 8 8 9 9 9 9 9 9 9 9 9 9 9 9
4 5 4 4 3 3 3 4 4 3 3 4 4 3 4 5 5 6 6 6 7 7 7 7 7 8 8 8 9 9 9 9 9 9 9 9 9 9 10 10 9 10 10 11